Regional Weather Roundup
Issued by NWS

Home | Current Version | Previous Version | Graphics & Text | Print | Product List | Glossary On
Versions: 1 2 3 4 5 6 7 8 9 10 11 12 13 14 15 16 17 18 19 20 21 22 23 24 25 26 27 28 29 30 31 32 33 34 35 36 37 38 39 40 41 42 43 44 45 46 47 48 49 50
000
ASUS43 KLSX 012059
RWRMO

WEATHER SUMMARY FOR MISSOURI
NATIONAL WEATHER SERVICE SPRINGFIELD MO
300 PM CST SUN MAR 01 2015

NOTE: "FAIR" INDICATES FEW OR NO CLOUDS BELOW 12,000 FEET WITH NO
       SIGNIFICANT WEATHER AND/OR OBSTRUCTIONS TO VISIBILITY.
       CURRENT SKY AND/OR WEATHER CONDITIONS ARE NOT AVAILABLE FOR
       CHILLICOTHE AND FARMINGTON.

MOZ001>031-035>038-043-044-053-054-012200-
...NORTHERN AND WESTERN MISSOURI...

CITY           SKY/WX    TMP DP  RH WIND       PRES   REMARKS
KANSAS CTY INT CLOUDY    32  22  66 NW9       30.37S WCI  24
KANSAS C DTWN  CLOUDY    34  22  61 NW5       30.38S WCI  30
LEE`S SUMMIT   CLOUDY    32  20  61 N5        30.38S WCI  27
ST JOSEPH      PTSUNNY   31  21  66 VRB3      30.40S
CHILLICOTHE      N/A     31  20  63 NW5       30.39S WCI  26
KIRKSVILLE     CLOUDY    29  19  66 W8        30.35F WCI  21

$$
MOZ066>068-077>081-088>096-101>105-012200-
...SOUTHWEST MISSOURI...

CITY           SKY/WX    TMP DP  RH WIND       PRES   REMARKS
SPRINGFIELD    CLOUDY    33  26  75 NW13      30.32F WCI  24
JOPLIN         CLOUDY    31  25  78 N6        30.37S WCI  25

$$
MOZ032>034-039>042-045>050-055>058-069>072-012200-
...CENTRAL MISSOURI...

CITY           SKY/WX    TMP DP  RH WIND       PRES   REMARKS
COLUMBIA       PTSUNNY   30  22  72 NW5       30.36R WCI  25
JEFFERSON CITY CLOUDY    31  23  72 W8        30.38S WCI  23
ROLLA          CLOUDY    30  25  81 NW7       30.32S WCI  23
SEDALIA        MOSUNNY   29  19  66 NW7       30.39R WCI  22
OSAGE BEACH    CLOUDY    30  23  74 NW3       30.36S

$$
MOZ051-052-059>065-012200-
...EAST CENTRAL MISSOURI...

CITY           SKY/WX    TMP DP  RH WIND       PRES   REMARKS
ST LOUIS INTL  CLOUDY    31  24  75 NW7       30.36R WCI  24
SPIRIT OF STL  CLOUDY    31  24  75 NW5       30.36R WCI  26
ST CHARLES     CLOUDY    31  24  75 NW6       30.36R WCI  25

$$
MOZ072>076-082>087-097>100-106>115-012200-
...SOUTH CENTRAL AND SOUTHEAST MISSOURI...

CITY           SKY/WX    TMP DP  RH WIND       PRES   REMARKS
CAPE GIRARDEAU CLOUDY    37  33  85 N6        30.35R
FARMINGTON     CLOUDY    34  28  80 NW7       30.36R WCI  28
POPLAR BLUFF   CLOUDY    39  31  72 NW5       30.33S
WEST PLAINS    CLOUDY    34  30  85 N6        30.32S WCI  29

$$



USA.gov is the U.S. government's official web portal to all federal, state and local government web resources and services.